CW5532 Weather Reports


Display with metric or nautical units.
time (UTC)temp
F
wind
direction
speed
MPH
gust
MPH
rain 1hr
in
rain 24hr
in
rain mn
in
humidity
%
barometer
mb
20260831223231 73 138 0.0 0.0 0.00 0.00 0.00 78 1017.9
20260831220231 73 138 0.0 0.0 0.00 0.00 0.00 78 1018.0
20260831213231 73 138 0.0 0.0 0.00 0.00 0.00 78 1017.9
20260831203231 73 138 0.0 0.0 0.00 0.00 0.00 77 1017.6
20260831200231 74 172 0.0 0.0 0.00 0.00 0.00 77 1017.3
20260831193731 75 100 0.0 0.0 0.00 0.00 0.00 76 1016.8
20260831190730 76 144 0.0 0.0 0.00 0.00 0.00 75 1016.2
20260831190231 76 144 0.0 0.0 0.00 0.00 0.00 75 1016.2
20260831183730 77 173 0.0 0.0 0.00 0.00 0.00 73 1016.0
20260831183230 78 138 0.0 0.0 0.00 0.00 0.00 73 1015.9
20260831170230 83 159 2.0 7.0 0.00 0.00 0.00 63 1015.7
20260831150730 88 156 5.0 14.0 0.00 0.00 0.00 55 1015.3
20260831150230 88 163 2.0 18.0 0.00 0.00 0.00 55 1015.3
20260831143230 88 165 6.0 16.0 0.00 0.00 0.00 55 1015.2
20260831140230 89 159 4.0 14.0 0.00 0.00 0.00 51 1015.0
20260831133230 90 148 3.0 12.0 0.00 0.00 0.00 42 1015.2
20260831130230 89 85 2.0 12.0 0.00 0.00 0.00 42 1015.5
20260831123230 88 94 2.0 10.0 0.00 0.00 0.00 42 1015.9
20260831120730 87 99 1.0 10.0 0.00 0.00 0.00 45 1016.2
20260831113229 85 165 1.0 7.0 0.00 0.00 0.00 46 1016.7
20260831100230 81 99 0.0 7.0 0.00 0.00 0.00 51 1017.2
20260831090229 78 97 0.0 0.0 0.00 0.00 0.00 56 1017.4
20260831080729 74 101 0.0 0.0 0.00 0.00 0.00 57 1017.3
20260831070229 70 259 0.0 1.0 0.00 0.00 0.00 61 1016.9
20260831060229 59 214 0.0 0.0 0.00 0.00 0.00 78 1016.6
20260831053728 56 186 0.0 0.0 0.00 0.00 0.00 79 1016.6
20260831053229 56 245 0.0 0.0 0.00 0.00 0.00 78 1016.4
20260831050728 57 252 0.0 0.0 0.00 0.00 0.00 78 1016.1
20260831050229 57 252 0.0 0.0 0.00 0.00 0.00 77 1015.9
20260831040729 57 252 0.0 0.0 0.00 0.00 0.00 77 1015.8
20260831040228 58 252 0.0 0.0 0.00 0.00 0.00 77 1015.8
20260831033728 58 252 0.0 0.0 0.00 0.00 0.00 77 1015.7
20260831020728 60 252 0.0 0.0 0.00 0.00 0.00 74 1015.2
20260831020228 60 252 0.0 0.0 0.00 0.00 0.00 73 1015.3
20260831013728 61 252 0.0 0.0 0.00 0.00 0.00 72 1015.1
20260831010728 63 252 0.0 0.0 0.00 0.00 0.00 69 1015.1
20260831003728 64 266 0.0 2.0 0.00 0.00 0.00 66 1015.0
20260831003229 64 232 1.0 6.0 0.00 0.00 0.00 66 1015.1
20260831000228 65 251 0.0 3.0 0.00 0.00 0.00 65 1015.1
20260830233728 65 246 0.0 5.0 0.00 0.00 0.00 66 1015.2
20260830233228 64 232 0.0 1.0 0.00 0.00 0.00 67 1015.1